sat.trackr.live / text

‹ back to catalog

STARLINK-34330

NORAD 64227 · 2025-117AA

PAYLOAD ACTIVE UNKNOWN

§ Identity

Operator
Country
US
Launch date
2025-05-31
Launch site
AFWTR
Launch vehicle
Mass (kg)
RCS (m²)

Purposes: comms

External: N2YO · Heavens-Above · Gunter

§ Orbital elements

Epoch: 2026-05-25T00:35:31.400736Z

Period
94.11 min
Inclination
53.1574°
Eccentricity
0.0000834
Mean motion
15.30205550 rev/d
Perigee alt
474.6 km
Apogee alt
475.8 km
Semi-major
6,853.3 km
B*
5.5092e-4
RAAN
44.9743°
Arg perigee
70.7132°
Mean anomaly
289.3959°
Rev number
5,621

§ Raw data

STARLINK-343301 64227U 25117AA  26145.02466899  .00015995  00000+0  55092-3 0  99912 64227  53.1574  44.9743 0000834  70.7132 289.3959 15.30205550 56219

JSON: /api/v1/satellites/64227 · /tle

For live sub-satellite position, see the globe view (requires WebGL).

§ Visibility from observer

Set your observer location to see the next 7 days of passes ≥ 10°. The values pass through the URL so the page stays shareable.

No JS? Fill the form by hand. The geolocation button needs JavaScript.